{"data":{"norad_id":65347,"intl_designator":"2025-189AA","name":"STARLINK-34881","alt_names":[],"object_type":"PAYLOAD","status":"ACTIVE","operator":null,"country":"US","launch_date":"2025-08-27","launch_site_code":"AFETR","launch_vehicle":null,"mission":null,"orbit_class":"UNKNOWN","rcs_meters":null,"size_class":null,"mass_kg":null,"dimensions":null,"purposes":["comms"],"wikipedia_slug":null,"has_3d_model":false,"image_url":null,"decayed_at":null,"tle_current":{"epoch":"2026-05-25T04:46:40.687392Z","epoch_age_seconds":54505,"freshness":"FRESH","line1":"1 65347U 25189AA  26145.19908203  .00015200  00000+0  50025-3 0  9992","line2":"2 65347  53.1578 211.1570 0001042  80.3876 279.7243 15.31722010 42835","mean_motion":15.3172201,"eccentricity":0.0001042,"inclination_deg":53.1578,"raan_deg":211.157,"arg_perigee_deg":80.3876,"mean_anomaly_deg":279.7243,"bstar":0.00050025,"rev_number":4283,"period_min":94.011837043459,"perigee_km":469.96073920026,"apogee_km":471.38803149297,"semimajor_km":6848.8113853466,"source":"CELESTRAK","updated_at":"2026-05-25T13:38:20.763489Z"}}}